Theta_e
311 312 313 312 312 310 307 307 308 309 309 308 306 302 303 304 305 305 306 308 307 306 308 309 311 311 312 311 314 317 316 318 320 322 324 327 333 335 336 332 334 336 348 347 345
309 310 311 312 312 312 311 307 307 308 311 311 309 303 302 302 303 304 309 310 307 308 309 308 309 313 312 312 313 315 315 317 319 321 323 325 328 331 332 330 330 333 336 345 347
309 310 310 311 311 311 312 311 307 307 309 311 312 307 301 301 307 317 320 319 313 308 309 310 310 312 312 312 314 316 316 316 319 320 321 322 325 328 327 327 329 329 332 334 341
309 310 310 310 310 310 310 311 311 306 308 311 312 311 302 301 319 324 319 318 312 309 309 310 309 311 311 311 315 314 317 318 319 320 321 321 324 328 327 327 329 328 327 329 329
308 308 308 309 310 310 311 310 311 309 307 309 311 311 307 310 310 313 319 321 311 309 308 308 311 312 313 313 315 315 316 318 320 321 321 321 322 326 327 326 325 326 326 326 326
306 307 308 309 310 311 310 311 311 312 307 308 310 310 309 312 314 322 319 313 310 310 307 308 315 317 317 314 314 317 317 318 320 320 320 319 321 321 322 324 324 321 323 323 324
306 308 308 308 309 310 311 311 311 311 308 308 309 309 311 308 317 319 317 314 311 309 309 314 316 317 317 315 317 318 317 317 318 320 319 321 319 319 321 321 321 321 321 322 322
307 306 307 309 309 310 311 312 311 311 308 308 310 310 312 312 314 316 316 316 316 315 317 317 317 317 317 317 317 317 316 316 318 319 320 319 317 319 321 321 321 320 321 321 321
308 309 309 309 311 311 311 311 312 311 308 311 313 311 316 314 314 315 316 316 317 318 317 317 318 316 316 315 314 315 315 317 318 318 319 318 317 319 321 321 320 321 321 321 321
310 311 312 312 310 310 312 312 312 311 312 313 314 316 317 317 314 315 319 318 315 316 316 319 318 316 314 313 313 316 316 316 317 318 317 317 317 317 320 320 320 321 321 320 321
313 313 311 311 311 312 312 312 316 320 317 318 315 314 317 317 317 316 319 318 316 316 316 318 315 315 316 316 316 317 318 317 317 318 318 317 317 317 319 320 321 321 321 321 321
314 312 311 311 313 312 311 311 316 317 318 320 321 319 320 320 317 317 319 318 317 317 317 317 315 317 318 319 318 318 317 317 318 320 320 319 318 318 319 319 320 321 321 321 321
313 312 311 313 313 315 313 315 315 316 317 319 320 321 321 319 319 319 318 318 317 318 318 316 318 319 319 318 319 317 317 318 319 319 318 318 318 319 320 320 321 321 321 321 321
312 312 311 315 319 318 318 318 316 316 318 322 322 321 322 319 319 318 319 318 318 317 318 318 319 320 319 318 317 316 318 319 319 317 315 318 315 318 319 317 317 320 321 322 321
312 311 312 313 315 318 317 317 318 318 327 326 322 321 321 318 318 318 318 319 319 319 318 319 318 318 318 318 317 316 317 317 317 315 315 315 315 315 317 318 318 318 321 322 322
310 310 313 314 318 317 317 317 318 322 329 327 321 320 319 318 318 320 319 319 319 318 318 318 318 318 317 318 318 318 317 316 315 315 315 318 318 317 318 318 318 319 320 321 321
309 310 314 314 319 318 317 316 322 327 327 328 322 320 319 319 319 320 320 318 316 316 316 317 317 317 318 317 317 316 315 313 314 315 316 317 317 317 318 319 320 320 321 321 321
308 312 319 317 317 319 318 320 327 327 322 326 320 321 321 320 319 320 319 318 317 317 318 320 322 321 321 318 316 316 316 313 315 317 318 320 321 320 323 324 323 323 322 323 323
308 314 321 319 316 317 319 327 329 324 321 320 321 321 321 325 325 324 322 321 320 316 317 318 322 321 322 322 321 321 317 316 319 319 319 319 320 322 324 324 323 323 323 322 322
309 317 322 318 318 318 321 325 326 321 319 320 321 322 322 323 325 325 325 325 324 322 321 323 325 323 323 322 322 322 321 321 318 323 322 322 322 324 326 325 324 323 323 322 322
313 321 321 318 319 320 323 325 324 321 319 320 320 320 320 321 321 322 323 324 323 321 320 322 322 323 321 322 322 321 323 321 318 324 326 327 326 324 324 324 322 321 322 322 321
314 322 319 319 322 323 325 324 323 319 319 320 319 320 320 320 321 321 323 323 320 321 321 320 320 323 322 319 318 318 320 324 326 324 322 321 323 322 321 322 322 321 321 322 322
311 317 318 318 324 324 321 321 320 320 318 317 318 318 318 318 320 320 322 319 319 320 320 319 320 320 319 318 319 321 322 320 319 324 327 327 326 322 322 320 321 321 321 321 321
312 319 319 317 319 320 319 319 319 317 317 316 316 316 316 315 315 318 318 319 318 317 317 318 319 320 319 319 319 320 321 321 321 323 326 325 324 323 324 321 320 320 319 320 320
314 318 317 315 317 317 317 317 317 318 315 315 315 316 315 315 314 314 316 315 316 317 317 317 317 317 316 316 316 317 317 317 322 320 323 321 324 321 320 320 319 319 318 318 318
314 314 314 314 317 318 316 318 317 316 314 314 314 313 313 314 314 314 313 314 315 316 316 316 316 315 316 315 315 317 317 316 316 318 320 320 320 318 317 317 318 318 318 318 318
311 312 313 315 316 317 317 316 315 314 313 313 313 312 312 312 312 312 312 313 313 314 315 316 315 313 314 316 318 320 318 317 317 316 316 316 316 315 317 317 318 317 316 316 315
Wind_Speed
19 21 22 23 24 20 17 16 16 15 15 15 15 14 13 14 16 18 27 23 17 17 15 10 12 17 19 24 23 28 9 13 16 17 18 15 8 6 26 4 14 3 26 27 22
19 20 22 23 23 24 21 18 16 15 14 14 15 15 15 17 19 25 16 10 18 14 18 17 17 16 24 18 18 10 11 17 11 15 18 18 6 16 14 4 7 13 15 17 22
20 21 22 24 24 24 24 22 17 16 15 14 14 15 14 14 15 6 4 10 9 21 18 14 15 20 23 24 27 19 15 9 20 31 32 21 10 12 9 3 11 7 18 17 15
21 22 24 24 24 24 24 24 22 16 15 14 14 14 13 10 3 4 10 10 4 13 15 15 18 20 10 16 33 11 20 23 24 29 30 15 17 7 7 10 11 8 7 5 8
22 23 24 25 27 25 24 24 23 18 15 14 14 15 13 8 18 11 10 14 4 13 19 19 15 24 9 14 23 17 17 27 32 30 33 28 8 3 14 9 6 7 3 6 5
24 25 26 26 26 27 26 24 23 21 15 13 13 14 11 7 2 5 11 4 7 14 19 20 14 19 17 18 14 23 24 25 26 31 29 10 6 2 8 14 15 15 7 4 8
25 26 27 28 27 27 25 24 23 22 14 13 13 13 14 25 2 0 7 6 4 9 16 17 22 21 21 8 35 27 10 11 12 11 7 13 6 8 12 17 18 18 18 14 14
26 26 27 28 29 28 26 23 22 20 13 12 13 9 13 4 11 9 12 4 6 11 13 19 23 24 16 18 20 6 6 3 6 7 15 8 8 7 17 21 23 22 24 25 16
25 25 26 30 32 32 31 24 21 16 10 10 8 8 13 5 15 13 13 12 9 14 16 14 15 14 15 6 5 5 4 4 8 8 10 10 6 10 23 30 26 30 24 19 17
23 26 30 32 37 38 30 20 17 11 7 6 7 7 13 10 13 13 14 14 10 11 13 7 5 2 5 3 5 7 5 6 9 17 12 13 11 11 24 20 24 32 26 21 21
26 28 31 35 39 31 24 11 5 3 13 15 13 13 14 6 12 11 15 11 13 13 6 14 3 7 11 11 13 12 8 13 12 16 12 16 12 13 18 16 8 17 17 16 19
28 32 33 39 31 26 19 10 15 7 10 21 24 25 25 15 11 12 17 11 8 7 9 4 8 13 15 16 15 15 12 11 9 6 4 2 8 8 7 6 11 24 27 28 24
30 33 37 31 20 12 10 10 9 7 6 16 27 26 27 14 13 13 18 18 8 9 9 9 12 16 15 13 14 11 9 4 5 10 7 5 4 4 5 7 18 21 31 32 31
30 30 36 23 5 9 13 13 5 1 4 6 10 15 17 11 7 18 17 16 8 10 11 8 12 15 15 11 6 5 8 4 7 8 4 2 5 6 5 11 11 23 26 26 33
29 30 26 17 9 4 11 9 7 7 3 2 9 11 14 12 8 12 19 21 10 10 8 13 9 8 8 6 7 7 9 8 8 6 6 9 2 6 7 7 15 17 28 27 29
29 29 20 10 7 4 12 8 6 1 5 5 9 8 8 12 10 6 10 9 10 8 13 12 20 7 7 8 5 7 5 5 5 1 2 4 4 6 10 9 8 7 32 35 33
29 20 14 9 7 4 7 6 2 4 7 12 7 14 12 11 12 11 7 5 5 3 6 8 13 13 14 5 8 7 3 3 5 4 5 8 6 14 9 12 16 21 16 22 26
28 12 8 5 4 5 6 2 3 7 12 11 14 7 10 13 12 15 14 8 9 7 2 3 7 4 5 3 7 8 4 5 7 5 5 7 6 8 6 7 24 22 33 36 32
25 8 11 0 2 2 5 3 3 8 11 13 9 7 4 9 8 11 5 5 6 11 7 5 11 9 13 10 6 6 6 6 1 2 1 4 6 5 8 8 9 13 24 28 24
25 15 9 3 1 4 2 5 1 7 9 8 5 10 10 8 4 7 3 5 5 6 7 4 4 7 2 7 7 6 5 5 3 1 5 4 6 1 8 11 14 14 19 18 19
12 8 2 5 4 4 3 5 2 9 10 6 8 7 9 8 8 3 2 5 8 10 4 2 5 5 6 3 4 5 3 4 6 7 5 1 3 6 6 7 6 10 15 11 14
6 3 3 2 1 4 3 9 12 6 13 8 5 7 9 9 7 6 9 5 12 7 5 1 2 3 6 8 9 9 9 4 3 8 3 4 9 8 8 9 12 13 17 13 12
17 7 5 5 1 2 4 12 19 5 7 6 7 9 8 7 5 7 6 5 10 7 4 6 2 3 6 6 7 4 4 4 3 2 9 8 4 3 6 7 9 7 10 9 12
7 3 2 2 9 5 7 6 8 8 12 12 6 5 9 8 8 6 7 5 6 7 6 5 2 3 4 8 12 8 7 5 4 3 4 8 10 6 2 3 3 10 11 11 12
3 3 5 3 5 4 5 5 6 6 11 7 5 8 6 2 7 5 8 8 7 3 3 4 4 5 8 12 17 18 18 14 13 13 9 9 10 15 7 11 16 18 16 16 14
6 6 9 11 12 4 4 4 9 8 6 6 6 9 6 2 5 9 9 6 4 3 3 4 3 5 8 14 17 21 17 16 18 15 19 17 19 13 8 8 4 4 3 9 6
10 8 8 11 6 6 2 3 3 3 2 8 7 6 6 6 9 12 14 13 9 5 1 4 2 3 4 9 12 8 14 15 14 8 7 11 4 8 5 7 6 7 8 8 12
Wind_Direction
0 3 7 8 7 354 333 322 318 316 317 318 318 310 294 284 275 274 270 276 265 218 228 202 191 223 230 243 229 230 234 231 242 244 253 270 39 213 194 117 283 41 123 139 140
348 351 353 356 359 358 353 328 316 310 312 319 322 319 315 310 306 290 303 278 237 236 218 227 226 206 217 230 235 225 222 233 242 253 262 281 314 236 191 350 209 111 190 145 153
339 340 343 344 346 348 349 346 320 310 307 315 320 320 316 312 320 286 345 326 243 216 225 221 238 250 213 232 238 247 233 228 241 260 267 277 289 278 151 172 240 165 165 167 172
331 332 333 334 336 338 339 340 336 310 302 306 314 316 314 303 255 228 314 335 246 204 223 231 239 258 207 220 228 241 244 235 246 244 259 263 252 176 275 177 182 195 94 77 109
327 327 327 326 327 327 329 330 333 318 299 297 303 309 312 289 265 286 291 301 239 203 220 214 220 254 237 219 228 222 233 234 239 253 263 274 289 172 240 286 294 255 222 180 243
322 322 321 320 319 318 318 321 323 326 297 290 294 299 298 264 210 247 315 288 225 212 220 211 226 237 261 223 223 231 225 233 226 235 248 239 243 262 272 270 277 300 274 238 217
318 319 317 316 314 313 311 311 313 318 294 285 287 288 270 251 176 169 304 360 175 220 198 205 233 248 259 253 237 248 243 230 234 242 264 262 262 231 237 268 264 264 274 269 237
321 320 318 316 316 314 309 306 302 307 287 280 282 262 258 283 223 231 215 256 237 241 244 250 261 257 276 290 265 263 246 210 246 231 257 227 245 250 241 242 241 244 243 248 248
322 321 321 318 316 312 307 301 294 296 278 273 262 233 265 289 224 227 215 225 212 240 245 262 293 270 293 299 309 280 202 272 278 251 215 181 218 229 245 232 232 229 229 213 240
328 326 322 319 317 313 305 292 282 276 262 235 187 275 252 235 206 214 205 228 194 218 242 262 294 295 288 294 235 249 200 225 225 241 236 216 215 221 233 249 234 215 203 207 227
328 327 323 322 320 314 307 285 256 195 201 207 201 219 285 275 196 200 198 224 197 208 215 209 179 226 237 241 245 255 261 222 237 242 222 221 200 205 219 235 162 165 177 202 232
328 327 327 324 324 312 294 239 212 320 270 259 241 251 267 286 201 210 194 209 244 232 211 256 229 239 224 233 237 251 262 277 283 313 333 288 205 195 204 221 209 193 202 214 216
330 328 330 327 334 339 306 274 269 349 282 282 233 229 239 253 252 206 197 198 232 227 253 212 237 232 249 250 249 242 241 294 312 314 318 337 284 221 236 235 264 239 223 220 207
331 330 331 330 2 353 319 347 32 99 292 261 190 222 217 231 271 234 219 199 219 249 250 243 251 256 249 240 265 295 306 279 294 302 266 2 271 268 226 242 242 248 233 205 201
332 332 328 315 322 331 358 17 10 236 289 202 145 142 179 186 285 199 224 208 220 250 242 264 281 289 301 247 234 249 287 267 248 245 264 298 354 266 297 262 241 236 228 213 200
330 332 319 308 293 4 354 358 353 270 244 209 139 169 136 206 256 133 212 258 203 241 270 270 294 300 284 322 291 289 265 297 292 206 325 233 236 278 260 261 277 221 220 213 198
329 327 299 279 247 18 336 320 263 238 124 301 184 157 175 192 231 169 194 167 163 243 271 294 286 288 298 313 329 356 103 330 325 323 221 246 255 241 277 255 265 258 211 168 147
330 313 278 316 223 340 318 314 252 288 11 227 8 175 189 203 215 198 179 190 209 225 238 228 292 302 333 240 213 271 162 168 226 231 261 339 260 239 288 341 74 68 96 105 104
333 326 279 155 32 123 267 253 269 320 21 355 327 281 8 46 55 289 266 230 204 193 189 218 236 296 302 292 312 313 290 228 35 315 10 271 311 326 24 4 52 90 110 105 106
333 334 296 120 170 204 274 242 207 347 17 346 341 20 15 350 68 297 333 60 37 82 60 1 335 270 43 16 312 292 294 318 352 326 287 229 262 209 34 33 35 66 62 97 105
335 330 187 164 244 246 244 317 355 339 37 27 349 332 338 2 350 319 331 55 21 2 344 211 149 286 359 191 259 322 316 286 181 149 184 303 250 142 83 62 35 64 30 37 33
18 288 200 170 238 69 6 306 296 21 22 3 353 7 8 9 356 347 19 33 25 351 347 47 60 265 271 305 304 274 267 240 179 289 253 191 240 109 99 71 37 20 12 11 351
337 275 240 176 286 133 195 275 271 48 40 20 350 21 0 4 345 5 53 60 0 38 38 341 323 346 317 280 282 63 32 45 41 217 228 244 242 93 65 47 31 6 312 314 299
325 307 48 251 48 25 355 336 353 88 61 31 344 4 30 14 335 312 317 77 32 68 41 7 312 212 223 283 305 292 279 281 119 272 349 260 284 246 238 183 243 274 286 279 277
272 329 11 321 4 4 313 305 305 38 32 39 359 74 46 338 335 294 19 345 2 150 38 26 255 270 286 295 289 282 280 267 208 218 225 248 258 282 285 202 202 232 251 259 262
319 8 330 297 304 296 243 333 39 27 30 329 32 23 357 275 285 301 317 347 296 97 65 358 293 325 294 280 276 275 265 260 257 242 236 242 249 242 238 47 98 170 216 237 293
338 333 0 292 302 285 246 82 16 30 82 86 17 359 330 329 344 307 299 280 258 272 243 171 239 359 265 317 344 302 250 251 259 247 253 256 289 16 77 74 20 349 340 306 296